[[{"header":{"parameterUnit":"m.s-1","parameterCategory":2,"la1":30.2991,"la2":30.254,"lo1":-89.0895,"lo2":-89.0444,"dy":0.0017,"dx":0.0017,"nx":28,"ny":28,"refTime":"2024-04-24T21:00:00:Z","depth":"0","parameterNumber":2,"parameterNumberName":"U-component_of_CURRENTS"},"data":[0,0,0,0,0,0,0,0,0,0,0,0,0,0,0,0,0,0,0,0,0,0,0,0,0,0,0,0,0,0,0,0,0,0,0,0,0,0,0,0,0,0,0,0,0,0,0,0,0,0,0,0,0,0,0,0,0,0,0.3715,0.3715,0,0.3757,0.3757,0.3758,0.3746,0.3745,0.3745,0.3744,0.3765,0.3766,0.3768,0,0,0,0,0,0,0,0,0,0,0,0,0,0.3641,0.3642,0.3715,0.3715,0.3716,0.3757,0.3757,0.3758,0.3746,0.3745,0.3744,0.3744,0.3765,0.3766,0.3768,0,0,0,0,0,0,0,0,0,0,0,0,0,0.3677,0.3643,0.3715,0.3715,0.3716,0.3757,0.3757,0.3758,0.3747,0.3745,0.3744,0.3743,0.3764,0.3766,0.3768,0.3805,0,0,0.3774,0.3775,0,0,0,0,0,0,0,0,0.3675,0.3679,0.3715,0.3715,0.3716,0.3745,0.3739,0.3773,0.3747,0.3735,0.3744,0.3742,0.3758,0.376,0.3771,0.3806,0.3807,0.3774,0.3776,0.3776,0.3777,0,0,0,0,0,0,0,0.3672,0.3678,0.3731,0.3715,0.3716,0.3719,0.3723,0.3746,0.3752,0.3736,0.3735,0.3741,0.3758,0.3769,0.3771,0.3807,0.3774,0.3776,0.3777,0.3778,0.3884,0.3885,0,0,0,0,0,0,0.3669,0.3675,0.373,0.3732,0.3692,0.3722,0.3726,0.3737,0.3752,0.3754,0.3742,0.374,0.3766,0.3769,0.3772,0.3851,0.3776,0.3778,0.3779,0.3882,0.3884,0.3886,0,0,0,0,0,0,0.3667,0.3673,0.3728,0.3705,0.3712,0.3724,0.3737,0.3738,0.3754,0.3757,0.3758,0.3756,0.3765,0.3769,0.3805,0.385,0.3779,0.3781,0.388,0.3883,0.3885,0.3987,0,0,0,0,0,0,0.3665,0.3673,0.3687,0.3705,0.3713,0.3762,0.3738,0.374,0.3759,0.3757,0.377,0.377,0.3764,0.3803,0.3807,0.3851,0.3783,0.3878,0.3881,0.3884,0.3981,0.3992,0.4002,0,0,0,0,0,0.3662,0.3682,0.3687,0.3694,0.373,0.3763,0.3769,0.3772,0.3761,0.3779,0.3788,0.377,0.3824,0.3806,0.3811,0.3857,0.3877,0.388,0.3884,0.3977,0.399,0.4002,0,0,0,0,0,0,0.3655,0.3684,0.3689,0.3717,0.3744,0.3762,0.3778,0.3782,0.3804,0.3803,0.3797,0.38,0.385,0.3836,0.3816,0.3893,0.3846,0.385,0.3914,0.3927,0.3937,0.3988,0.3784,0,0,0,0,0,0.3663,0.3686,0.3713,0.3737,0.375,0.3768,0.3783,0.3792,0.381,0.3818,0.3822,0.3835,0.3871,0.3883,0.3903,0.3949,0.4008,0.3977,0.3988,0.3996,0.4041,0.4177,0.4206,0.3898,0.3898,0.3898,0,0,0.3669,0.3685,0.3701,0.3738,0.3755,0.3795,0.3774,0.3806,0.3849,0.3819,0.3867,0.3875,0.3891,0.3945,0.3965,0.3938,0.4113,0.4001,0.4009,0.4049,0.4185,0.4215,0.4243,0.39,0.39,0.3899,0,0,0.369,0.3707,0.3735,0.3764,0.3799,0.3818,0.3831,0.3858,0.3879,0.3925,0.3926,0.3975,0.3988,0.4038,0.4059,0.4141,0.4167,0.4119,0.4215,0.4347,0.4375,0.44,0.4515,0.455,0.412,0.4121,0.4121,0,0.3699,0.3735,0.3749,0.3786,0.3817,0.3832,0.3878,0.3914,0.395,0.3987,0.3946,0.4043,0.405,0.4169,0.4193,0.4173,0.4239,0.4168,0.4366,0.4392,0.4416,0.4528,0.4565,0.4126,0.4125,0.4125,0.4124,0,0.3743,0.3778,0.3796,0.3852,0.3891,0.3931,0.3982,0.4025,0.4037,0.4072,0.4169,0.4193,0.426,0.4259,0.4254,0.4424,0.4413,0.4369,0.4344,0.4455,0.4563,0.46,0.4134,0.4132,0.413,0.4129,0,0,0.3745,0.3815,0.3821,0.3863,0.3929,0.397,0.4053,0.4139,0.4218,0.4246,0.4359,0.4421,0.444,0.447,0.4478,0.4583,0.4803,0.4553,0.4557,0.4685,0.5101,0.5002,0.5032,0.4794,0.4801,0.4807,0.5109,0,0.3775,0.3848,0.388,0.3969,0.4017,0.4071,0.4153,0.4239,0.4302,0.4413,0.4478,0.4578,0.452,0.4573,0.4677,0.4781,0.4906,0.4726,0.496,0.4968,0.4882,0.5074,0.4774,0.501,0.5145,0.5151,0.5156,0,0.3805,0.3854,0.3935,0.4042,0.4069,0.413,0.4276,0.4355,0.4514,0.4567,0.4682,0.4736,0.492,0.4838,0.5109,0.4996,0.5078,0.5137,0.5149,0.5056,0.4939,0.492,0.5072,0.4871,0.5212,0.5208,0.5204,0,0.3799,0.3894,0.396,0.3996,0.4118,0.4179,0.4252,0.4399,0.4504,0.4691,0.4797,0.4969,0.5102,0.5231,0.5344,0.5259,0.563,0.5522,0.5517,0.5509,0.5304,0.5266,0.5306,0.5746,0.5746,0.5745,0.5744,0,0.3818,0.3873,0.3963,0.4006,0.4113,0.4193,0.434,0.4432,0.4616,0.4773,0.4886,0.5056,0.5214,0.5412,0.5466,0.563,0.5742,0.561,0.5612,0.5324,0.5287,0.5136,0.5079,0.5756,0.5754,0.5751,0.575,0,0.3807,0.3858,0.3948,0.407,0.4112,0.4194,0.4377,0.4508,0.4657,0.4881,0.4959,0.521,0.5461,0.5599,0.585,0.5806,0.5775,0.5964,0.5608,0.5561,0.5293,0.5253,0.5243,0.5104,0.602,0.6019,0.6019,0,0.3813,0.385,0.3978,0.4055,0.4113,0.4244,0.4359,0.4511,0.4658,0.4964,0.5091,0.5394,0.5552,0.587,0.5891,0.601,0.5826,0.5787,0.5563,0.531,0.527,0.5078,0.4946,0.5339,0.5333,0.5329,0.5325,0,0.3854,0.3889,0.3983,0.4096,0.4215,0.4324,0.4485,0.458,0.479,0.4952,0.5179,0.5316,0.5611,0.5591,0.5743,0.5758,0.5458,0.5693,0.5536,0.4862,0.4559,0.4408,0.5106,0.5283,0.5287,0.529,0.5293,0.5294,0.3909,0.3968,0.408,0.4167,0.4288,0.4362,0.4388,0.4558,0.4695,0.4842,0.5095,0.517,0.525,0.5399,0.5399,0.5162,0.5233,0.4934,0.4955,0.4819,0.453,0.514,0.5234,0.5237,0.5241,0.5244,0.5246,0,0.4003,0.4057,0.4151,0.4239,0.429,0.4342,0.4452,0.4418,0.4466,0.4656,0.4766,0.4752,0.4699,0.4733,0.4614,0.4422,0.4201,0.4282,0.3917,0.3862,0.4491,0.4295,0.4058,0.4059,0.4059,0.4059,0.4059,0.4059,0.4079,0.4172,0.4165,0.4199,0.4229,0.4184,0.4169,0.4114,0.4161,0.41,0.4062,0.4147,0.4233,0.4174,0.3942,0.3844,0.3557,0.337,0.3456,0.3834,0.3892,0.3947,0.3744,0.3396,0.3396,0.256,0.2554,0.2549]},{"header":{"parameterUnit":"m.s-1","parameterCategory":2,"la1":30.2991,"la2":30.254,"lo1":-89.0895,"lo2":-89.0444,"dy":0.0017,"dx":0.0017,"nx":28,"ny":28,"refTime":"2024-04-24T21:00:00:Z","depth":"0","parameterNumber":3,"parameterNumberName":"V-component_of_CURRENTS"},"data":[0,0,0,0,0,0,0,0,0,0,0,0,0,0,0,0,0,0,0,0,0,0,0,0,0,0,0,0,0,0,0,0,0,0,0,0,0,0,0,0,0,0,0,0,0,0,0,0,0,0,0,0,0,0,0,0,0,0,0.0196,0.0196,0,0.0144,0.0144,0.0143,0.0106,0.0106,0.0105,0.0105,0.0039,0.0038,0.0036,0,0,0,0,0,0,0,0,0,0,0,0,0,0.0228,0.0228,0.0196,0.0195,0.0195,0.0144,0.0144,0.0143,0.0106,0.0106,0.0105,0.0105,0.004,0.0038,0.0036,0,0,0,0,0,0,0,0,0,0,0,0,0,0.0199,0.0228,0.0196,0.017,0.0168,0.0144,0.0144,0.0143,0.0106,0.0106,0.0105,0.0105,0.004,0.0038,0.0036,0.0031,0,0,0.0029,0.0028,0,0,0,0,0,0,0,0,0.0201,0.0198,0.0175,0.0172,0.0169,0.0131,0.0131,0.0105,0.0106,0.013,0.0105,0.0105,0.0069,0.0064,0.0056,0.0028,0.0025,0.0029,0.0028,0.0027,0.0026,0,0,0,0,0,0,0,0.0203,0.02,0.0176,0.0174,0.0171,0.0149,0.0145,0.0125,0.0102,0.0127,0.0125,0.0119,0.0067,0.0058,0.0054,0.0024,0.0029,0.0027,0.0026,0.0025,-0.0007,-0.0006,0,0,0,0,0,0,0.0212,0.0202,0.0177,0.0174,0.0184,0.0149,0.0144,0.0144,0.0103,0.0096,0.0119,0.0117,0.0062,0.0057,0.0052,0.007,0.0027,0.0025,0.0023,-0.0007,-0.0007,-0.0006,0,0,0,0,0,0,0.0213,0.021,0.0179,0.0186,0.0181,0.0149,0.0149,0.0143,0.0138,0.0097,0.009,0.0121,0.0062,0.0055,0.0044,0.0066,0.0024,0.0022,-0.0008,-0.0007,-0.0006,0.009,0,0,0,0,0,0,0.0214,0.0211,0.0218,0.0187,0.0181,0.0183,0.0149,0.0142,0.0135,0.0132,0.0096,0.0089,0.0061,0.0047,0.0042,0.0062,0.002,-0.0008,-0.0007,-0.0007,0.0087,0.0094,0.0101,0,0,0,0,0,0.0215,0.0229,0.0219,0.0216,0.019,0.0184,0.0179,0.0154,0.0136,0.0146,0.0116,0.009,0.0049,0.0046,0.0039,0.006,-0.0009,-0.0008,-0.0007,0.0083,0.0093,0.0101,0,0,0,0,0,0,0.0247,0.0226,0.0213,0.022,0.021,0.0178,0.018,0.0162,0.0146,0.0139,0.0099,0.0091,0.0085,0.0058,0.0057,0.0051,0.0015,0.0014,0.0085,0.0094,0.0101,0.0153,0.0018,0,0,0,0,0,0.0257,0.0262,0.0239,0.0246,0.0241,0.0212,0.0206,0.019,0.0168,0.016,0.0135,0.0104,0.0084,0.0079,0.0051,0.0056,0.0057,0.0062,0.0069,0.0075,0.0112,0.0127,0.014,-0.0003,-0.0003,-0.0003,0,0,0.0271,0.0259,0.0262,0.0253,0.0238,0.0249,0.0208,0.0204,0.0218,0.0155,0.0165,0.0126,0.0087,0.0088,0.0084,0.0072,0.0114,0.0077,0.0083,0.0117,0.0129,0.0144,0.0156,-0.0002,-0.0002,-0.0002,0,0,0.0305,0.0291,0.0308,0.0305,0.0291,0.0277,0.0281,0.0256,0.0252,0.025,0.0208,0.0196,0.0157,0.015,0.0136,0.0169,0.0145,0.0144,0.0235,0.0248,0.0261,0.0272,0.029,0.0302,0.0156,0.0156,0.0157,0,0.0324,0.0344,0.0314,0.0331,0.0343,0.0296,0.0329,0.0315,0.0293,0.0312,0.0265,0.0243,0.0196,0.0228,0.0228,0.0191,0.0193,0.0207,0.0262,0.0273,0.0283,0.0298,0.031,0.0161,0.0161,0.016,0.016,0,0.0371,0.0391,0.0401,0.0413,0.0421,0.0439,0.0422,0.0431,0.0409,0.0403,0.0421,0.0362,0.0366,0.0329,0.0284,0.0336,0.0311,0.0264,0.0249,0.0304,0.0315,0.0326,0.0168,0.0166,0.0165,0.0164,0,0,0.0415,0.0435,0.0442,0.048,0.0471,0.0495,0.0518,0.0551,0.0606,0.0556,0.0635,0.0562,0.0543,0.0527,0.0472,0.0469,0.0516,0.0403,0.0401,0.044,0.0557,0.0493,0.0499,0.0476,0.0479,0.0481,0.0536,0,0.047,0.0538,0.0527,0.0606,0.0647,0.0629,0.0673,0.0693,0.0698,0.0758,0.0706,0.0741,0.0614,0.0633,0.0608,0.0551,0.0551,0.0507,0.0483,0.0484,0.0435,0.0511,0.0472,0.0514,0.0547,0.0549,0.055,0,0.0531,0.0574,0.0661,0.074,0.0759,0.08,0.0895,0.0926,0.0974,0.0982,0.0998,0.0964,0.0972,0.0848,0.0795,0.0772,0.0682,0.0615,0.0615,0.0539,0.0442,0.0463,0.0533,0.0304,0.0567,0.0566,0.0564,0,0.0608,0.0677,0.0763,0.0784,0.0851,0.0909,0.0953,0.1008,0.108,0.115,0.1224,0.1192,0.1229,0.1105,0.0946,0.0886,0.0884,0.0785,0.0647,0.0641,0.0598,0.0584,0.0465,0.0757,0.0757,0.0757,0.0757,0,0.0683,0.0756,0.0815,0.0866,0.0997,0.1011,0.1158,0.1191,0.129,0.1426,0.1362,0.1474,0.1295,0.1258,0.106,0.0909,0.0976,0.0701,0.0665,0.0626,0.0615,0.0403,0.0285,0.0759,0.0759,0.0758,0.0758,0,0.0756,0.0788,0.0898,0.0993,0.1037,0.1136,0.1284,0.1398,0.1466,0.1652,0.1694,0.1727,0.169,0.1486,0.1327,0.1094,0.0796,0.0845,0.0813,0.077,0.0386,0.0276,0.0157,0.0073,0.0714,0.0713,0.0713,0,0.0804,0.0862,0.0991,0.1079,0.1132,0.1275,0.1388,0.1479,0.1612,0.1818,0.1934,0.1973,0.2026,0.1763,0.1383,0.1065,0.0823,0.0777,0.0635,0.0396,0.0247,0.0154,0.0086,0.0619,0.0618,0.0617,0.0616,0,0.0897,0.0933,0.1024,0.1192,0.1329,0.1481,0.1651,0.1779,0.1928,0.2102,0.2319,0.2387,0.2163,0.1849,0.1393,0.1132,0.0604,0.0738,0.0511,0.0195,0.0073,-0.0036,0.0549,0.0604,0.0605,0.0606,0.0607,0.0607,0.0969,0.1044,0.116,0.1323,0.1482,0.1678,0.182,0.2022,0.226,0.2537,0.2577,0.2716,0.2208,0.1602,0.1248,0.0511,0.0544,0.0243,0.0145,0.0085,-0.0048,0.0511,0.0496,0.0497,0.0497,0.0498,0.0498,0,0.1055,0.1137,0.129,0.1482,0.1661,0.1727,0.1992,0.2156,0.2451,0.271,0.289,0.2675,0.2072,0.1432,0.0445,-0.0027,-0.0181,-0.0278,-0.0424,-0.0454,0.0064,0.0001,-0.0145,-0.0145,-0.0145,-0.0145,-0.0145,-0.0144,0.1111,0.1246,0.1316,0.16,0.1741,0.1978,0.213,0.2394,0.2611,0.289,0.2957,0.2963,0.2383,0.0746,-0.0366,-0.0604,-0.0883,-0.0952,-0.1062,-0.075,-0.0709,-0.0671,-0.0759,-0.1063,-0.1064,-0.1549,-0.1554,-0.1558]}],[{"header":{"parameterUnit":"m.s-1","parameterCategory":2,"la1":30.2991,"la2":30.254,"lo1":-89.0895,"lo2":-89.0444,"dy":0.0017,"dx":0.0017,"nx":28,"ny":28,"refTime":"2024-04-24T21:00:00:Z","depth":"2","parameterNumber":2,"parameterNumberName":"U-component_of_CURRENTS"},"data":[0,0,0,0,0,0,0,0,0,0,0,0,0,0,0,0,0,0,0,0,0,0,0,0,0,0,0,0,0,0,0,0,0,0,0,0,0,0,0,0,0,0,0,0,0,0,0,0,0,0,0,0,0,0,0,0,0,0,0.298,0.2982,0,0.3045,0.3045,0.3045,0.3037,0.3037,0.3036,0.3036,0.3075,0.3077,0.3078,0,0,0,0,0,0,0,0,0,0,0,0,0,0.2901,0.2901,0.298,0.2982,0.2983,0.3045,0.3045,0.3045,0.3037,0.3037,0.3036,0.3036,0.3075,0.3076,0.3078,0,0,0,0,0,0,0,0,0,0,0,0,0,0.294,0.2901,0.298,0.2992,0.2994,0.3045,0.3045,0.3045,0.3037,0.3037,0.3036,0.3036,0.3074,0.3076,0.3078,0.3102,0,0,0.3085,0.3086,0,0,0,0,0,0,0,0,0.2938,0.2942,0.2989,0.2992,0.2994,0.3039,0.3032,0.3066,0.3037,0.3013,0.3036,0.3035,0.3066,0.3069,0.3072,0.3104,0.3106,0.3085,0.3086,0.3087,0.3088,0,0,0,0,0,0,0,0.2935,0.294,0.2998,0.2991,0.2994,0.3013,0.3016,0.3038,0.3036,0.3015,0.3017,0.3036,0.3066,0.307,0.3073,0.3106,0.3085,0.3087,0.3088,0.3089,0.3178,0.3179,0,0,0,0,0,0,0.294,0.2937,0.2996,0.3001,0.2973,0.3015,0.3018,0.3019,0.3036,0.3041,0.3036,0.3035,0.3067,0.307,0.3074,0.3149,0.3087,0.3089,0.309,0.3177,0.3178,0.318,0,0,0,0,0,0,0.2938,0.2944,0.2994,0.2977,0.2986,0.3017,0.3018,0.3021,0.3037,0.3054,0.3056,0.3051,0.3066,0.3071,0.3116,0.3149,0.309,0.3092,0.3176,0.3177,0.3179,0.3271,0,0,0,0,0,0,0.2935,0.2942,0.2955,0.2977,0.2987,0.3025,0.3019,0.3023,0.3053,0.3052,0.3068,0.307,0.3066,0.3114,0.3119,0.3151,0.3093,0.3174,0.3176,0.3178,0.3266,0.3275,0.3283,0,0,0,0,0,0.2931,0.2948,0.2955,0.2963,0.3,0.3026,0.3032,0.3048,0.3054,0.3059,0.3086,0.307,0.3129,0.3117,0.3122,0.3156,0.3173,0.3176,0.3178,0.3262,0.3274,0.3283,0,0,0,0,0,0,0.2924,0.295,0.2958,0.2982,0.3005,0.3027,0.3048,0.306,0.3084,0.3096,0.3098,0.3102,0.3153,0.314,0.3126,0.3184,0.3143,0.3147,0.3205,0.3216,0.3224,0.3267,0.3095,0,0,0,0,0,0.293,0.2942,0.2971,0.2991,0.3006,0.303,0.305,0.3064,0.309,0.31,0.3113,0.3132,0.3166,0.318,0.3197,0.3238,0.3281,0.3256,0.3265,0.3272,0.3309,0.3409,0.3432,0.3188,0.3188,0.3188,0,0,0.2929,0.2952,0.2956,0.2991,0.3011,0.3047,0.3038,0.3076,0.3116,0.3103,0.3157,0.3169,0.3184,0.3231,0.325,0.3226,0.3362,0.3275,0.3282,0.3315,0.3415,0.3439,0.3461,0.319,0.3189,0.3189,0,0,0.2941,0.2957,0.2974,0.2997,0.3045,0.3071,0.3086,0.3119,0.3141,0.3194,0.3204,0.3248,0.3271,0.3304,0.3321,0.3388,0.3408,0.3373,0.3452,0.3549,0.3572,0.3592,0.3679,0.3706,0.3372,0.3372,0.3373,0,0.2948,0.2973,0.2985,0.3017,0.3054,0.3085,0.3127,0.3159,0.3205,0.3244,0.3219,0.3316,0.3315,0.3414,0.343,0.3412,0.3469,0.3415,0.3566,0.3586,0.3605,0.369,0.3719,0.3377,0.3377,0.3376,0.3376,0,0.2971,0.3002,0.3018,0.307,0.3108,0.3149,0.3204,0.3248,0.3282,0.3319,0.3413,0.3432,0.3496,0.3487,0.3483,0.3613,0.3611,0.3572,0.3549,0.3636,0.3718,0.3747,0.3384,0.3382,0.3381,0.338,0,0,0.2961,0.3023,0.3029,0.3066,0.3145,0.3178,0.3264,0.3351,0.3426,0.3467,0.3569,0.362,0.3646,0.367,0.3674,0.3746,0.3913,0.3723,0.3725,0.3827,0.4145,0.3953,0.3966,0.3909,0.3914,0.3919,0.4149,0,0.2983,0.3043,0.3079,0.3156,0.3198,0.3264,0.3343,0.3428,0.3499,0.36,0.366,0.3755,0.3713,0.3765,0.3837,0.3911,0.3993,0.3855,0.4031,0.4036,0.387,0.3993,0.3669,0.383,0.4177,0.4182,0.4185,0,0.2997,0.3042,0.3114,0.3212,0.3239,0.3302,0.3448,0.3524,0.3673,0.3734,0.385,0.3901,0.4054,0.3978,0.4189,0.4111,0.4148,0.4179,0.4187,0.4003,0.3898,0.3797,0.3869,0.4233,0.4229,0.4225,0.4222,0,0.2983,0.3068,0.3131,0.3161,0.3279,0.3344,0.3426,0.357,0.366,0.385,0.3938,0.4105,0.4217,0.4312,0.4366,0.4317,0.4563,0.4497,0.4363,0.435,0.4105,0.4059,0.4642,0.4641,0.4641,0.464,0.464,0,0.2994,0.3041,0.3131,0.3165,0.325,0.3353,0.3487,0.3579,0.3764,0.3893,0.402,0.4165,0.431,0.4439,0.4464,0.4511,0.4656,0.4426,0.4411,0.412,0.4076,0.4434,0.4407,0.4649,0.4647,0.4645,0.4644,0,0.2969,0.3022,0.3098,0.3218,0.3242,0.3318,0.3489,0.3637,0.3778,0.3959,0.4038,0.4281,0.4469,0.4545,0.472,0.4629,0.4685,0.4644,0.4282,0.4217,0.4393,0.4368,0.4578,0.4573,0.4569,0.4566,0.4563,0,0.2963,0.3002,0.3102,0.3161,0.3219,0.3337,0.3465,0.3626,0.3731,0.4021,0.4094,0.4358,0.4464,0.4631,0.4584,0.4597,0.4665,0.4244,0.4062,0.443,0.4396,0.4376,0.4357,0.3799,0.379,0.3783,0.3777,0,0.296,0.3003,0.3064,0.3149,0.3272,0.3399,0.3523,0.3588,0.3803,0.3898,0.4081,0.4211,0.4389,0.4266,0.4247,0.4203,0.4211,0.4093,0.4641,0.3817,0.37,0.3663,0.367,0.3713,0.372,0.3724,0.3728,0.373,0.2958,0.2988,0.3056,0.3139,0.3283,0.3417,0.3411,0.3539,0.3613,0.3649,0.3904,0.3917,0.3972,0.379,0.3689,0.3616,0.3887,0.368,0.3702,0.3732,0.3553,0.3429,0.3361,0.3365,0.3369,0.3372,0.3375,0,0.2926,0.2961,0.3051,0.3119,0.3231,0.3345,0.341,0.3339,0.3285,0.3421,0.3433,0.3193,0.3116,0.3197,0.2992,0.2946,0.2924,0.282,0.2773,0.284,0.2898,0.2674,0.2252,0.2248,0.2245,0.2241,0,0,0.2908,0.295,0.2982,0.3034,0.311,0.311,0.3107,0.2991,0.2916,0.2808,0.275,0.2944,0.3085,0.2613,0.2554,0.2377,0.2584,0.2285,0.3195,0.3208,0.3262,0.3414,0.3146,0,0,0,0,0]},{"header":{"parameterUnit":"m.s-1","parameterCategory":2,"la1":30.2991,"la2":30.254,"lo1":-89.0895,"lo2":-89.0444,"dy":0.0017,"dx":0.0017,"nx":28,"ny":28,"refTime":"2024-04-24T21:00:00:Z","depth":"2","parameterNumber":3,"parameterNumberName":"V-component_of_CURRENTS"},"data":[0,0,0,0,0,0,0,0,0,0,0,0,0,0,0,0,0,0,0,0,0,0,0,0,0,0,0,0,0,0,0,0,0,0,0,0,0,0,0,0,0,0,0,0,0,0,0,0,0,0,0,0,0,0,0,0,0,0,0.0041,0.004,0,0.0,-0.0,-0.0001,-0.0034,-0.0034,-0.0035,-0.0035,-0.0094,-0.0095,-0.0097,0,0,0,0,0,0,0,0,0,0,0,0,0,0.0058,0.0058,0.0041,0.004,0.004,0.0001,-0.0,-0.0001,-0.0034,-0.0034,-0.0035,-0.0035,-0.0094,-0.0095,-0.0097,0,0,0,0,0,0,0,0,0,0,0,0,0,0.0036,0.0058,0.0041,0.002,0.0017,0.0001,-0.0,-0.0001,-0.0034,-0.0034,-0.0035,-0.0035,-0.0093,-0.0095,-0.0097,-0.0102,0,0,-0.0103,-0.0104,0,0,0,0,0,0,0,0,0.0037,0.0035,0.0023,0.0021,0.0019,-0.0011,-0.0016,-0.0035,-0.0034,-0.0016,-0.0035,-0.0035,-0.0067,-0.0071,-0.0079,-0.0105,-0.0108,-0.0103,-0.0105,-0.0106,-0.0106,0,0,0,0,0,0,0,0.0039,0.0037,0.0024,0.0023,0.002,0.0001,-0.0002,-0.002,-0.004,-0.0017,-0.002,-0.0022,-0.0069,-0.0077,-0.0081,-0.0108,-0.0103,-0.0105,-0.0106,-0.0107,-0.014,-0.014,0,0,0,0,0,0,0.0049,0.0038,0.0025,0.0023,0.0029,0.0002,-0.0002,-0.0002,-0.004,-0.0045,-0.0022,-0.0023,-0.0074,-0.0079,-0.0083,-0.0075,-0.0106,-0.0107,-0.0109,-0.014,-0.014,-0.0139,0,0,0,0,0,0,0.0049,0.0048,0.0027,0.003,0.0026,0.0002,0.0002,-0.0003,-0.0008,-0.0042,-0.0049,-0.0021,-0.0074,-0.008,-0.0092,-0.0079,-0.0108,-0.011,-0.0141,-0.014,-0.014,-0.007,0,0,0,0,0,0,0.005,0.0048,0.0052,0.0031,0.0027,0.0028,0.0002,-0.0003,-0.0008,-0.0011,-0.0044,-0.005,-0.0075,-0.0088,-0.0094,-0.0082,-0.0112,-0.0141,-0.014,-0.014,-0.0073,-0.0067,-0.0062,0,0,0,0,0,0.0051,0.0062,0.0053,0.0051,0.0033,0.0029,0.0025,0.0005,-0.0008,-0.0003,-0.0027,-0.0049,-0.0088,-0.0089,-0.0096,-0.0084,-0.0141,-0.0141,-0.014,-0.0075,-0.0068,-0.0062,0,0,0,0,0,0,0.0073,0.0059,0.0049,0.0055,0.0047,0.0024,0.0025,0.0012,-0.0004,-0.0009,-0.0042,-0.005,-0.0058,-0.008,-0.0081,-0.0093,-0.0119,-0.012,-0.0068,-0.0062,-0.0057,-0.0031,-0.0113,0,0,0,0,0,0.008,0.0084,0.0068,0.0074,0.0071,0.0049,0.0044,0.0031,0.0014,0.0007,-0.0015,-0.0041,-0.006,-0.0067,-0.009,-0.0092,-0.0112,-0.0091,-0.0085,-0.0081,-0.0065,-0.0082,-0.0077,-0.0137,-0.0137,-0.0137,0,0,0.0089,0.0083,0.0085,0.0079,0.0068,0.0077,0.0045,0.0043,0.0052,0.0003,0.0008,-0.0024,-0.0058,-0.0063,-0.0068,-0.0078,-0.0077,-0.008,-0.0075,-0.0062,-0.0081,-0.0075,-0.007,-0.0136,-0.0136,-0.0136,0,0,0.0118,0.0106,0.0121,0.0118,0.0108,0.0098,0.0102,0.0083,0.0077,0.0074,0.004,0.0022,-0.0006,-0.0024,-0.0037,-0.0016,-0.0052,-0.0029,0.0023,0.0006,0.0011,0.0016,-0.0009,-0.0007,-0.0023,-0.0022,-0.0022,0,0.013,0.0148,0.0125,0.014,0.015,0.0114,0.0139,0.0126,0.0108,0.0113,0.0085,0.0051,0.0015,0.002,0.0021,-0.0002,-0.0021,0.0004,0.0015,0.0018,0.0022,-0.0005,-0.0004,-0.0019,-0.0019,-0.002,-0.002,0,0.0168,0.0185,0.0195,0.0205,0.0211,0.0224,0.021,0.0212,0.0196,0.0183,0.0179,0.0128,0.0117,0.0092,0.0061,0.007,0.0045,0.0021,0.0004,0.0032,0.0002,0.0002,-0.0014,-0.0015,-0.0016,-0.0017,0,0,0.0199,0.0219,0.0225,0.0252,0.0249,0.0265,0.0281,0.0295,0.0322,0.028,0.0313,0.0255,0.0228,0.0211,0.0167,0.0142,0.0134,0.0097,0.0094,0.0082,0.0093,0.0021,0.0013,0.0112,0.0113,0.0113,0.006,0,0.0241,0.0294,0.029,0.0349,0.038,0.0364,0.0394,0.0397,0.0387,0.0406,0.0349,0.0357,0.0274,0.0278,0.0237,0.0173,0.0138,0.015,0.006,0.0057,-0.0003,0.0012,0.0061,0.0013,0.006,0.006,0.006,0,0.0285,0.0321,0.0387,0.0444,0.0457,0.0489,0.0541,0.0561,0.0563,0.0558,0.054,0.0497,0.0468,0.0388,0.0288,0.0303,0.0205,0.0135,0.0131,0.0043,-0.0015,-0.0008,0.001,0.0059,0.0059,0.0059,0.0059,0,0.0335,0.0393,0.0457,0.0472,0.0523,0.0563,0.0595,0.0614,0.0657,0.0667,0.0704,0.0634,0.0639,0.0508,0.035,0.0331,0.0226,0.0183,0.0019,0.0013,0.0026,0.002,0.0099,0.0099,0.0099,0.0099,0.0099,0,0.0388,0.044,0.0493,0.0528,0.0621,0.0636,0.0731,0.0745,0.0796,0.0883,0.0799,0.086,0.0671,0.0583,0.0405,0.0218,0.0269,0.0035,-0.0002,0.0048,0.0044,0.0063,0.0059,0.0097,0.0098,0.0098,0.0099,0,0.0431,0.0459,0.0541,0.0615,0.0646,0.0718,0.0827,0.0901,0.0937,0.1052,0.1073,0.1045,0.0944,0.0712,0.0514,0.0316,0.0124,0.0033,0.0094,0.0063,-0.0093,-0.0092,-0.0137,-0.014,-0.0142,-0.0144,-0.0146,0,0.0459,0.0502,0.0603,0.0669,0.071,0.0817,0.0901,0.0964,0.1055,0.1187,0.1259,0.1205,0.1182,0.0836,0.0494,0.0155,0.0106,-0.0052,-0.0097,-0.0084,-0.0115,-0.0111,-0.0107,-0.0049,-0.005,-0.005,-0.0051,0,0.0508,0.0542,0.0611,0.0749,0.0853,0.097,0.1098,0.1193,0.1306,0.142,0.1569,0.1568,0.1256,0.0941,0.044,0.0215,-0.0,-0.0079,-0.0049,-0.0013,-0.001,-0.0038,-0.0035,-0.0057,-0.0056,-0.0056,-0.0055,-0.0055,0.0547,0.0607,0.0708,0.085,0.0971,0.1135,0.1251,0.1407,0.1588,0.1764,0.176,0.1755,0.1381,0.0754,0.0367,-0.0044,-0.0034,-0.0193,-0.0186,-0.018,-0.0176,-0.0179,-0.0257,-0.0258,-0.0258,-0.0259,-0.0259,0,0.0597,0.068,0.0809,0.0982,0.1137,0.1188,0.1395,0.1525,0.1767,0.188,0.1973,0.1618,0.125,0.0821,0.0219,-0.0164,-0.0162,-0.0287,-0.019,-0.0182,-0.0176,-0.0169,-0.025,-0.0251,-0.0252,-0.0253,0,0,0.0631,0.0752,0.0835,0.1105,0.1235,0.1435,0.1562,0.1753,0.1868,0.1985,0.1967,0.1864,0.1359,0.0911,0.0423,0.0095,0.0039,0.0024,0.0057,0.0237,0.0248,-0.0083,-0.0061,0,0,0,0,0]}],[{"header":{"parameterUnit":"m.s-1","parameterCategory":2,"la1":30.2991,"la2":30.254,"lo1":-89.0895,"lo2":-89.0444,"dy":0.0017,"dx":0.0017,"nx":28,"ny":28,"refTime":"2024-04-24T21:00:00:Z","depth":"4","parameterNumber":2,"parameterNumberName":"U-component_of_CURRENTS"},"data":[0,0,0,0,0,0,0,0,0,0,0,0,0,0,0,0,0,0,0,0,0,0,0,0,0,0,0,0,0,0,0,0,0,0,0,0,0,0,0,0,0,0,0,0,0,0,0,0,0,0,0,0,0,0,0,0,0,0,0.1815,0.1816,0,0.1866,0.1866,0.1867,0.192,0.1921,0.1922,0.1922,0.1993,0.1994,0.1995,0,0,0,0,0,0,0,0,0,0,0,0,0,0.1744,0.1745,0.1815,0.1816,0.1817,0.1866,0.1867,0.1867,0.1919,0.1921,0.1922,0.1923,0.1993,0.1994,0.1995,0,0,0,0,0,0,0,0,0,0,0,0,0,0.178,0.1745,0.1815,0.1851,0.1855,0.1866,0.1867,0.1867,0.1919,0.1921,0.1922,0.1924,0.1992,0.1994,0.1995,0.1974,0,0,0.2,0.2,0,0,0,0,0,0,0,0,0.1778,0.1782,0.1845,0.1849,0.1853,0.1891,0.1868,0.1905,0.1919,0.1892,0.1923,0.1924,0.1961,0.1965,0.1967,0.1977,0.198,0.2,0.2001,0.2001,0.2002,0,0,0,0,0,0,0,0.1776,0.178,0.1832,0.1846,0.1851,0.1859,0.1865,0.1874,0.1916,0.1894,0.1899,0.1909,0.1964,0.1966,0.1969,0.1981,0.2,0.2001,0.2002,0.2002,0.2082,0.2083,0,0,0,0,0,0,0.1775,0.1778,0.1831,0.1834,0.1822,0.1859,0.1866,0.1875,0.1915,0.1924,0.1907,0.1911,0.1963,0.1968,0.1972,0.2057,0.2001,0.2002,0.2003,0.208,0.2082,0.2083,0,0,0,0,0,0,0.1773,0.1779,0.1829,0.181,0.1817,0.1859,0.1868,0.1875,0.1923,0.1926,0.1934,0.1954,0.1964,0.197,0.2013,0.2056,0.2003,0.2004,0.2079,0.2081,0.2083,0.2159,0,0,0,0,0,0,0.1771,0.1778,0.18,0.181,0.1818,0.1862,0.1867,0.1875,0.1926,0.1932,0.1967,0.1973,0.1966,0.2011,0.2014,0.2057,0.2005,0.2077,0.208,0.2082,0.2154,0.2163,0.217,0,0,0,0,0,0.1768,0.1783,0.1801,0.1809,0.1842,0.1863,0.1869,0.1901,0.1927,0.195,0.1974,0.1974,0.2028,0.2013,0.2017,0.2061,0.2076,0.2079,0.2082,0.2151,0.2161,0.217,0,0,0,0,0,0,0.1764,0.179,0.181,0.1834,0.1863,0.1874,0.1901,0.1926,0.1963,0.1982,0.1987,0.1994,0.2048,0.204,0.2023,0.2089,0.2054,0.2057,0.2105,0.2114,0.2122,0.2146,0.2007,0,0,0,0,0,0.1773,0.1796,0.182,0.1846,0.1862,0.1893,0.1914,0.1938,0.1963,0.1984,0.2007,0.203,0.2053,0.2074,0.2086,0.2121,0.2136,0.2152,0.216,0.2167,0.2188,0.2247,0.2262,0.2093,0.2093,0.2092,0,0,0.178,0.1798,0.1814,0.1848,0.1873,0.19,0.191,0.1953,0.1987,0.1983,0.2045,0.2062,0.2069,0.2109,0.2133,0.2115,0.222,0.2171,0.2176,0.2194,0.2251,0.2268,0.2283,0.2094,0.2094,0.2094,0,0,0.1789,0.1823,0.1843,0.187,0.1917,0.1933,0.1957,0.1994,0.2028,0.2077,0.2088,0.2136,0.2163,0.2182,0.2192,0.225,0.226,0.2257,0.232,0.2377,0.2392,0.2405,0.2437,0.2453,0.2261,0.2261,0.2262,0,0.1804,0.1826,0.1854,0.188,0.191,0.1954,0.1985,0.2019,0.2069,0.2102,0.2109,0.2188,0.2198,0.2258,0.2283,0.2271,0.2299,0.2285,0.2389,0.2403,0.2415,0.2445,0.2461,0.2265,0.2265,0.2265,0.2264,0,0.1814,0.1851,0.1867,0.1915,0.1951,0.1987,0.2034,0.2083,0.2132,0.2166,0.2251,0.2272,0.2326,0.2334,0.2332,0.2426,0.2416,0.2393,0.2369,0.2437,0.2463,0.2479,0.2271,0.227,0.2269,0.2268,0,0,0.1798,0.1862,0.1874,0.1903,0.1977,0.1999,0.207,0.2135,0.2194,0.2257,0.2332,0.2391,0.2432,0.2448,0.246,0.2511,0.262,0.2505,0.2506,0.2544,0.2746,0.256,0.2559,0.2627,0.2631,0.2633,0.2726,0,0.1805,0.1849,0.1887,0.1946,0.1974,0.2042,0.2097,0.2169,0.2243,0.2323,0.2384,0.2461,0.2466,0.2514,0.2572,0.2614,0.2668,0.2597,0.2669,0.267,0.2504,0.2573,0.2644,0.2737,0.2741,0.2744,0.2745,0,0.1797,0.183,0.1882,0.1959,0.198,0.2031,0.2139,0.2198,0.2319,0.239,0.2496,0.2542,0.2655,0.2634,0.2769,0.2732,0.276,0.2776,0.2779,0.2594,0.2514,0.2656,0.2774,0.2771,0.2769,0.2767,0.2766,0,0.1745,0.1827,0.1867,0.1895,0.1986,0.2039,0.2107,0.2227,0.2291,0.2457,0.2525,0.2655,0.2746,0.2809,0.2866,0.284,0.2985,0.2939,0.2792,0.2779,0.2886,0.287,0.3029,0.3029,0.3029,0.3028,0.3028,0,0.1713,0.1754,0.1855,0.1869,0.193,0.2024,0.2114,0.2207,0.2351,0.243,0.257,0.2643,0.2804,0.2887,0.291,0.2906,0.303,0.2823,0.2799,0.2911,0.2898,0.2896,0.2879,0.3032,0.3031,0.303,0.303,0,0.1633,0.1709,0.1743,0.1848,0.19,0.1941,0.21,0.2147,0.233,0.2443,0.2504,0.269,0.2808,0.2907,0.3026,0.2952,0.296,0.2922,0.3049,0.3027,0.2703,0.269,0.2762,0.2756,0.2751,0.2748,0.2744,0,0.159,0.1603,0.1693,0.1709,0.1764,0.1865,0.1916,0.2116,0.2184,0.2431,0.2455,0.2645,0.2744,0.2769,0.2887,0.2924,0.2887,0.2873,0.2776,0.2711,0.2681,0.2675,0.2668,0.2737,0.2735,0.2734,0.2733,0,0.148,0.1518,0.1529,0.1582,0.1638,0.1671,0.179,0.1836,0.2061,0.2259,0.2371,0.2443,0.257,0.2661,0.2728,0.2733,0.287,0.2823,0.2831,0.274,0.2681,0.2655,0.2654,0.2716,0.2719,0.272,0.2721,0,0.1371,0.1353,0.1384,0.1422,0.147,0.1451,0.1537,0.1646,0.1762,0.2081,0.2116,0.2323,0.2544,0.2561,0.2603,0.2621,0.2571,0.2477,0.2503,0.2522,0.24,0.2287,0.2198,0,0,0,0,0,0.1236,0.1215,0.1231,0.1242,0.1278,0.1322,0.143,0.1531,0.1795,0.1819,0.198,0.2089,0.22,0.2303,0.2272,0.2453,0.2545,0.2401,0.2439,0.2625,0.2644,0.2521,0,0,0,0,0,0,0.1147,0.1137,0.1173,0.1099,0.1085,0.1111,0.116,0.1319,0.1369,0.1656,0.1731,0.1967,0.2098,0.2217,0.2242,0.2273,0.225,0.2558,0.2552,0.2614,0.2632,0.2647,0.2527,0,0,0,0,0]},{"header":{"parameterUnit":"m.s-1","parameterCategory":2,"la1":30.2991,"la2":30.254,"lo1":-89.0895,"lo2":-89.0444,"dy":0.0017,"dx":0.0017,"nx":28,"ny":28,"refTime":"2024-04-24T21:00:00:Z","depth":"4","parameterNumber":3,"parameterNumberName":"V-component_of_CURRENTS"},"data":[0,0,0,0,0,0,0,0,0,0,0,0,0,0,0,0,0,0,0,0,0,0,0,0,0,0,0,0,0,0,0,0,0,0,0,0,0,0,0,0,0,0,0,0,0,0,0,0,0,0,0,0,0,0,0,0,0,0,0.0043,0.0043,0,0.0021,0.0021,0.0021,0.0001,0.0001,0.0,0.0,-0.0039,-0.004,-0.0041,0,0,0,0,0,0,0,0,0,0,0,0,0,0.0048,0.0048,0.0043,0.0043,0.0043,0.0022,0.0021,0.0021,0.0001,0.0001,0.0,0.0,-0.0039,-0.004,-0.0041,0,0,0,0,0,0,0,0,0,0,0,0,0,0.0038,0.0048,0.0043,0.003,0.0029,0.0022,0.0021,0.0021,0.0001,0.0001,0.0,-0.0,-0.0039,-0.004,-0.0041,-0.0042,0,0,-0.0045,-0.0045,0,0,0,0,0,0,0,0,0.0038,0.0038,0.0032,0.0031,0.003,0.0014,0.0008,-0.0001,0.0001,0.0011,0.0,-0.0,-0.0023,-0.0025,-0.0029,-0.0044,-0.0046,-0.0045,-0.0046,-0.0046,-0.0047,0,0,0,0,0,0,0,0.0039,0.0038,0.0034,0.0032,0.003,0.0019,0.0017,0.0007,-0.0004,0.001,0.0009,0.0007,-0.0024,-0.0027,-0.003,-0.0046,-0.0045,-0.0046,-0.0047,-0.0047,-0.0067,-0.0067,0,0,0,0,0,0,0.0044,0.0039,0.0035,0.0034,0.0034,0.0019,0.0017,0.0019,-0.0004,-0.0007,0.0007,0.0006,-0.0025,-0.0028,-0.0031,-0.0027,-0.0046,-0.0047,-0.0048,-0.0067,-0.0067,-0.0067,0,0,0,0,0,0,0.0044,0.0044,0.0036,0.0036,0.0034,0.002,0.0021,0.0019,0.0017,-0.0006,-0.001,0.0009,-0.0026,-0.003,-0.0036,-0.0029,-0.0048,-0.0049,-0.0068,-0.0067,-0.0067,-0.0023,0,0,0,0,0,0,0.0044,0.0044,0.0047,0.0036,0.0034,0.0038,0.0022,0.0019,0.0016,0.0015,-0.0006,-0.001,-0.0026,-0.0034,-0.0037,-0.0031,-0.005,-0.0068,-0.0068,-0.0067,-0.0025,-0.0021,-0.0018,0,0,0,0,0,0.0045,0.0054,0.0048,0.0047,0.0039,0.0039,0.0037,0.0025,0.0017,0.0021,0.0006,-0.0009,-0.0034,-0.0034,-0.0038,-0.0033,-0.0068,-0.0068,-0.0067,-0.0026,-0.0022,-0.0018,0,0,0,0,0,0,0.0058,0.0053,0.0046,0.0053,0.0048,0.0036,0.0038,0.0029,0.0021,0.0018,-0.0004,-0.0009,-0.0012,-0.0028,-0.0029,-0.0038,-0.0055,-0.0055,-0.0022,-0.0018,-0.0015,-0.0006,-0.0051,0,0,0,0,0,0.0063,0.0068,0.0059,0.0065,0.0064,0.0051,0.0049,0.0041,0.0032,0.0028,0.0014,-0.0002,-0.0013,-0.002,-0.0033,-0.0035,-0.0068,-0.0036,-0.0033,-0.003,-0.0026,-0.0069,-0.0069,-0.0065,-0.0065,-0.0065,0,0,0.007,0.0067,0.007,0.0068,0.0062,0.0071,0.0049,0.0049,0.0057,0.0025,0.003,0.001,-0.0012,-0.0015,-0.0018,-0.0027,-0.0049,-0.0029,-0.0026,-0.0024,-0.0069,-0.0069,-0.007,-0.0065,-0.0065,-0.0065,0,0,0.009,0.0084,0.0096,0.0095,0.009,0.0085,0.0088,0.0078,0.0074,0.0075,0.0053,0.0037,0.0024,0.0008,-0.0001,0.0012,-0.0029,0.0006,0.003,-0.0012,-0.0013,-0.0014,-0.006,-0.0066,0.0007,0.0007,0.0007,0,0.0097,0.0113,0.0099,0.0111,0.0118,0.0096,0.0114,0.0107,0.0097,0.0097,0.0083,0.0054,0.0035,0.0027,0.0031,0.002,-0.0014,0.0018,-0.0008,-0.0009,-0.0011,-0.0059,-0.0065,0.0009,0.0009,0.0009,0.0009,0,0.0125,0.014,0.0148,0.0158,0.0163,0.0174,0.0165,0.0167,0.0157,0.0145,0.0133,0.01,0.0084,0.0072,0.0058,0.0038,0.0015,0.0002,-0.0017,-0.0009,-0.006,-0.0067,0.0013,0.0012,0.0011,0.0011,0,0,0.0142,0.0165,0.0169,0.0189,0.019,0.0201,0.0212,0.0218,0.023,0.0199,0.0204,0.0171,0.0143,0.013,0.01,0.0061,0.0018,0.003,0.0027,-0.0014,-0.0083,-0.0083,-0.0092,-0.0003,-0.0004,-0.0004,-0.0115,0,0.0172,0.0213,0.0214,0.0257,0.028,0.027,0.0288,0.0285,0.0275,0.0271,0.0218,0.0213,0.0168,0.0163,0.0114,0.0045,-0.0,0.0048,-0.0086,-0.009,-0.009,-0.01,-0.0007,-0.0121,-0.0123,-0.0124,-0.0125,0,0.02,0.0229,0.0278,0.032,0.0329,0.0351,0.0378,0.0392,0.0372,0.0362,0.0327,0.0283,0.0226,0.0191,0.0058,0.0089,0.001,-0.0053,-0.0059,-0.0078,-0.0104,-0.0131,-0.014,-0.0139,-0.0138,-0.0137,-0.0136,0,0.0227,0.0275,0.0321,0.0334,0.0372,0.0397,0.042,0.0421,0.0451,0.0422,0.0428,0.0337,0.031,0.0186,0.0054,0.0054,-0.01,-0.0117,-0.0196,-0.0197,-0.0184,-0.0182,-0.0209,-0.0209,-0.0209,-0.0208,-0.0208,0,0.0257,0.0296,0.0343,0.0368,0.0438,0.0444,0.0511,0.0513,0.053,0.057,0.0481,0.0477,0.031,0.0202,0.0065,-0.0091,-0.0097,-0.0195,-0.0225,-0.0163,-0.0158,-0.019,-0.0186,-0.0213,-0.0212,-0.0211,-0.021,0,0.0276,0.0303,0.0364,0.0422,0.0453,0.0503,0.0594,0.0645,0.0639,0.0685,0.0681,0.0584,0.0437,0.0254,0.0055,-0.0055,-0.0217,-0.0268,-0.0193,-0.0216,-0.0293,-0.0286,-0.0374,-0.0375,-0.0376,-0.0377,-0.0377,0,0.0288,0.032,0.041,0.0467,0.0501,0.0588,0.0662,0.0702,0.0761,0.0753,0.0778,0.0651,0.0561,0.0274,0.007,-0.0209,-0.0239,-0.0324,-0.0309,-0.0289,-0.031,-0.0301,-0.0293,-0.0378,-0.0379,-0.0379,-0.0379,0,0.0316,0.0345,0.0405,0.0521,0.0613,0.0719,0.0819,0.0869,0.0914,0.0907,0.0866,0.0707,0.0538,0.0293,0.0078,-0.012,-0.0275,-0.0333,-0.0332,-0.0319,-0.0296,-0.0313,-0.0304,-0.0382,-0.0381,-0.0381,-0.0381,0,0.0345,0.0394,0.0479,0.0583,0.0696,0.0809,0.0863,0.0935,0.0987,0.0972,0.0956,0.0754,0.0642,0.0339,0.0138,-0.0061,-0.011,-0.0164,-0.0174,-0.0174,-0.0085,-0.0023,-0.0052,0,0,0,0,0,0.0383,0.0449,0.0539,0.0659,0.0764,0.0837,0.0954,0.0999,0.1039,0.1031,0.0997,0.0837,0.0532,0.0392,0.0195,0.0107,-0.0157,-0.0132,-0.0226,-0.0396,-0.0393,-0.0323,0,0,0,0,0,0,0.0414,0.0505,0.0547,0.0696,0.0783,0.092,0.0998,0.1031,0.1026,0.1019,0.086,0.0786,0.0486,0.064,0.0188,0.0125,0.004,-0.0276,-0.028,-0.0398,-0.0395,-0.0393,-0.032,0,0,0,0,0]}]]